• In Schweiz
  • Länderverzeichnis
  • Für 7 Tage
  • Wassertemperatur
  • Satellitenkarten
  • Wetterkarte
  • Widgets
  • user-avatar
    Anmelden

    Stündliche Wetter Holhol

    Heute, 23 September, Sonntag

    Zeit Temperatur Niederschläge Wind Luftdruck Luftfeuchtigkeit
    00:00 +29°C° 0 mm 3 m/S 713 mmHg 70%
    01:00 +29°C° 0 mm 2 m/S 713 mmHg 71%
    02:00 +29°C° 0 mm 2 m/S 712 mmHg 71%
    03:00 +28°C° 0 mm 1 m/S 712 mmHg 73%
    04:00 +28°C° 0 mm 1 m/S 713 mmHg 73%
    05:00 +28°C° 0 mm 1 m/S 713 mmHg 73%
    06:00 +28°C° 0 mm 1 m/S 713 mmHg 74%
    07:00 +29°C° 0 mm 1 m/S 713 mmHg 65%
    08:00 +30°C° 0 mm 2 m/S 714 mmHg 56%
    09:00 +32°C° 0 mm 2 m/S 714 mmHg 47%
    10:00 +34°C° 0 mm 2 m/S 714 mmHg 40%
    11:00 +36°C° 0 mm 3 m/S 714 mmHg 34%
    12:00 +38°C° 0 mm 4 m/S 714 mmHg 27%
    13:00 +38°C° 0 mm 4 m/S 713 mmHg 28%
    14:00 +38°C° 0 mm 4 m/S 712 mmHg 29%
    15:00 +39°C° 0 mm 5 m/S 712 mmHg 31%
    16:00 +37°C° 0 mm 5 m/S 712 mmHg 33%
    17:00 +36°C° 0 mm 4 m/S 712 mmHg 36%
    18:00 +35°C° 0 mm 4 m/S 712 mmHg 38%
    19:00 +34°C° 0 mm 4 m/S 712 mmHg 42%
    20:00 +33°C° 0 mm 3 m/S 712 mmHg 45%
    21:00 +33°C° 0 mm 3 m/S 712 mmHg 49%
    22:00 +31°C° 0 mm 2 m/S 712 mmHg 51%
    23:00 +31°C° 0 mm 2 m/S 712 mmHg 53%

    Morgen, 24 September, Montag

    Zeit Temperatur Niederschläge Wind Luftdruck Luftfeuchtigkeit
    00:00 +30°C° 0 mm 2 m/S 712 mmHg 55%
    01:00 +30°C° 0 mm 2 m/S 712 mmHg 55%
    02:00 +29°C° 0 mm 2 m/S 712 mmHg 55%
    03:00 +29°C° 0 mm 2 m/S 712 mmHg 55%
    04:00 +29°C° 0 mm 1 m/S 712 mmHg 55%
    05:00 +29°C° 0 mm 1 m/S 712 mmHg 55%
    06:00 +28°C° 0 mm 1 m/S 712 mmHg 55%
    07:00 +30°C° 0 mm 1 m/S 713 mmHg 48%
    08:00 +31°C° 0 mm 2 m/S 713 mmHg 42%
    09:00 +32°C° 0 mm 2 m/S 714 mmHg 35%
    10:00 +35°C° 0 mm 3 m/S 714 mmHg 31%
    11:00 +36°C° 0 mm 3 m/S 713 mmHg 27%
    12:00 +37°C° 0 mm 4 m/S 713 mmHg 24%
    13:00 +38°C° 0 mm 4 m/S 712 mmHg 24%
    14:00 +38°C° 0 mm 4 m/S 712 mmHg 23%
    15:00 +39°C° 0 mm 5 m/S 711 mmHg 23%
    16:00 +37°C° 0 mm 5 m/S 711 mmHg 25%
    17:00 +36°C° 0 mm 5 m/S 711 mmHg 27%
    18:00 +35°C° 0 mm 4 m/S 711 mmHg 29%
    19:00 +35°C° 0 mm 4 m/S 711 mmHg 32%
    20:00 +34°C° 0 mm 3 m/S 712 mmHg 34%
    21:00 +32°C° 0 mm 2 m/S 712 mmHg 37%
    22:00 +32°C° 0 mm 2 m/S 712 mmHg 38%
    23:00 +31°C° 0 mm 2 m/S 712 mmHg 40%

    übermorgen, 25 September, Dienstag

    Zeit Temperatur Niederschläge Wind Luftdruck Luftfeuchtigkeit
    00:00 +31°C° 0 mm 3 m/S 712 mmHg 42%
    01:00 +30°C° 0 mm 3 m/S 712 mmHg 47%
    02:00 +30°C° 0 mm 3 m/S 711 mmHg 51%
    03:00 +29°C° 0 mm 3 m/S 711 mmHg 56%
    04:00 +29°C° 0 mm 3 m/S 711 mmHg 60%
    05:00 +28°C° 0 mm 3 m/S 712 mmHg 64%
    06:00 +28°C° 0 mm 2 m/S 712 mmHg 67%
    07:00 +29°C° 0 mm 3 m/S 712 mmHg 61%
    08:00 +30°C° 0 mm 3 m/S 713 mmHg 55%
    09:00 +31°C° 0 mm 3 m/S 714 mmHg 49%
    10:00 +33°C° 0 mm 4 m/S 713 mmHg 45%
    11:00 +34°C° 0 mm 4 m/S 713 mmHg 40%
    12:00 +36°C° 0 mm 4 m/S 713 mmHg 36%
    13:00 +36°C° 0 mm 4 m/S 712 mmHg 36%
    14:00 +36°C° 0 mm 4 m/S 711 mmHg 37%
    15:00 +36°C° 0 mm 4 m/S 710 mmHg 38%
    16:00 +36°C° 0 mm 4 m/S 710 mmHg 40%
    17:00 +35°C° 0 mm 3 m/S 710 mmHg 43%
    18:00 +35°C° 0 mm 3 m/S 710 mmHg 46%
    19:00 +34°C° 0 mm 3 m/S 711 mmHg 50%
    20:00 +33°C° 0 mm 3 m/S 711 mmHg 55%
    21:00 +31°C° 0 mm 3 m/S 712 mmHg 60%
    22:00 +31°C° 0 mm 3 m/S 712 mmHg 62%
    23:00 +30°C° 0 mm 3 m/S 712 mmHg 65%

    26 September, Mittwoch

    Zeit Temperatur Niederschläge Wind Luftdruck Luftfeuchtigkeit
    00:00 +30°C° 0 mm 3 m/S 712 mmHg 68%
    01:00 +29°C° 0 mm 3 m/S 711 mmHg 70%
    02:00 +29°C° 0 mm 3 m/S 711 mmHg 72%
    03:00 +28°C° 0 mm 3 m/S 711 mmHg 75%
    04:00 +28°C° 0 mm 3 m/S 711 mmHg 76%
    05:00 +28°C° 0 mm 3 m/S 711 mmHg 77%
    06:00 +28°C° 0 mm 3 m/S 712 mmHg 78%
    07:00 +29°C° 0 mm 3 m/S 712 mmHg 72%
    08:00 +30°C° 0 mm 3 m/S 713 mmHg 66%
    09:00 +31°C° 0 mm 3 m/S 713 mmHg 61%
    10:00 +33°C° 0 mm 3 m/S 713 mmHg 55%
    11:00 +34°C° 0 mm 3 m/S 713 mmHg 48%
    12:00 +36°C° 0 mm 3 m/S 712 mmHg 42%
    13:00 +36°C° 0 mm 4 m/S 712 mmHg 42%
    14:00 +36°C° 0 mm 4 m/S 711 mmHg 41%
    15:00 +37°C° 0 mm 4 m/S 710 mmHg 40%
    16:00 +36°C° 0 mm 4 m/S 710 mmHg 43%
    17:00 +36°C° 0 mm 3 m/S 710 mmHg 46%
    18:00 +35°C° 0 mm 3 m/S 710 mmHg 49%
    19:00 +34°C° 0 mm 3 m/S 711 mmHg 53%
    20:00 +33°C° 0 mm 4 m/S 711 mmHg 58%
    21:00 +32°C° 0 mm 4 m/S 712 mmHg 62%
    22:00 +31°C° 0 mm 3 m/S 712 mmHg 66%
    23:00 +30°C° 0 mm 3 m/S 711 mmHg 70%

    27 September, Donnerstag

    Zeit Temperatur Niederschläge Wind Luftdruck Luftfeuchtigkeit
    00:00 +29°C° 0 mm 3 m/S 711 mmHg 73%
    01:00 +29°C° 0 mm 3 m/S 711 mmHg 74%
    02:00 +29°C° 0 mm 2 m/S 711 mmHg 75%
    03:00 +29°C° 0 mm 2 m/S 710 mmHg 76%
    04:00 +28°C° 0 mm 2 m/S 711 mmHg 77%
    05:00 +28°C° 0 mm 2 m/S 711 mmHg 77%
    06:00 +28°C° 0 mm 2 m/S 712 mmHg 78%
    07:00 +29°C° 0 mm 2 m/S 712 mmHg 72%
    08:00 +30°C° 0 mm 2 m/S 713 mmHg 66%
    09:00 +31°C° 0 mm 2 m/S 713 mmHg 60%
    10:00 +33°C° 0 mm 3 m/S 713 mmHg 53%
    11:00 +35°C° 0 mm 3 m/S 712 mmHg 47%
    12:00 +36°C° 0 mm 3 m/S 712 mmHg 40%
    13:00 +37°C° 0 mm 3 m/S 711 mmHg 39%
    14:00 +37°C° 0 mm 4 m/S 710 mmHg 38%
    15:00 +38°C° 0 mm 4 m/S 710 mmHg 37%
    16:00 +37°C° 0 mm 4 m/S 710 mmHg 39%
    17:00 +36°C° 0 mm 3 m/S 710 mmHg 42%
    18:00 +36°C° 0 mm 3 m/S 710 mmHg 45%
    19:00 +35°C° 0 mm 3 m/S 711 mmHg 48%
    20:00 +34°C° 0 mm 3 m/S 711 mmHg 52%
    21:00 +33°C° 0 mm 3 m/S 711 mmHg 55%
    22:00 +33°C° 0 mm 3 m/S 711 mmHg 59%
    23:00 +31°C° 0 mm 3 m/S 711 mmHg 63%

    28 September, Freitag

    Zeit Temperatur Niederschläge Wind Luftdruck Luftfeuchtigkeit
    00:00 +30°C° 0 mm 3 m/S 711 mmHg 68%
    01:00 +30°C° 0 mm 2 m/S 711 mmHg 70%
    02:00 +29°C° 0 mm 2 m/S 710 mmHg 72%
    03:00 +29°C° 0 mm 2 m/S 710 mmHg 73%
    04:00 +29°C° 0 mm 2 m/S 711 mmHg 74%
    05:00 +29°C° 0 mm 2 m/S 711 mmHg 75%
    06:00 +28°C° 0 mm 2 m/S 712 mmHg 76%
    07:00 +29°C° 0 mm 2 m/S 712 mmHg 69%
    08:00 +30°C° 0 mm 2 m/S 713 mmHg 62%
    09:00 +32°C° 0 mm 2 m/S 713 mmHg 55%
    10:00 +34°C° 0 mm 2 m/S 713 mmHg 48%
    11:00 +35°C° 0 mm 3 m/S 712 mmHg 42%
    12:00 +37°C° 0 mm 3 m/S 712 mmHg 36%
    13:00 +37°C° 0 mm 4 m/S 711 mmHg 36%
    14:00 +37°C° 0 mm 4 m/S 710 mmHg 36%
    15:00 +38°C° 0 mm 4 m/S 710 mmHg 37%
    16:00 +37°C° 0 mm 4 m/S 710 mmHg 40%
    17:00 +36°C° 0 mm 4 m/S 710 mmHg 43%
    18:00 +35°C° 0 mm 4 m/S 710 mmHg 46%
    19:00 +34°C° 0 mm 3 m/S 710 mmHg 51%
    20:00 +33°C° 0 mm 3 m/S 711 mmHg 55%
    21:00 +33°C° 0 mm 3 m/S 711 mmHg 59%
    22:00 +31°C° 0 mm 3 m/S 711 mmHg 63%
    23:00 +30°C° 0 mm 3 m/S 711 mmHg 66%
    Mehr zeigen